When you browse on this site, cookies collect data to enhance your experience and personalize the content and advertising you see.
Visit our Privacy Policy to learn more. By continuing to use the site, you agree to this use of cookies and data.
  • In Österreich
  • Länderverzeichnis
  • Für 7 Tage
  • Wassertemperatur
  • Satellitenkarten
  • Wetterkarte
  • News
  • Widgets
  • user-avatar
    Anmelden

    Stündliche Wetter Cottonwood Heights

    Heute, 25 Juni, Dienstag

    Zeit Temperatur Niederschläge Wind Luftdruck Luftfeuchtigkeit
    00:00 +17°C° 0 mm 2 m/S 632 mmHg 37%
    01:00 +17°C° 0 mm 2 m/S 632 mmHg 37%
    02:00 +16°C° 0 mm 2 m/S 632 mmHg 38%
    03:00 +16°C° 0 mm 2 m/S 632 mmHg 37%
    04:00 +16°C° 0 mm 2 m/S 632 mmHg 37%
    05:00 +16°C° 0 mm 2 m/S 632 mmHg 36%
    06:00 +18°C° 0 mm 2 m/S 632 mmHg 36%
    07:00 +20°C° 0 mm 2 m/S 633 mmHg 36%
    08:00 +21°C° 0 mm 2 m/S 634 mmHg 35%
    09:00 +24°C° 0 mm 3 m/S 634 mmHg 31%
    10:00 +26°C° 0 mm 3 m/S 635 mmHg 28%
    11:00 +28°C° 0 mm 4 m/S 635 mmHg 24%
    12:00 +28°C° 0 mm 5 m/S 635 mmHg 22%
    13:00 +29°C° 0 mm 5 m/S 635 mmHg 20%
    14:00 +30°C° 0 mm 6 m/S 635 mmHg 19%
    15:00 +30°C° 0 mm 6 m/S 635 mmHg 20%
    16:00 +30°C° 0 mm 6 m/S 634 mmHg 21%
    17:00 +30°C° 0 mm 6 m/S 634 mmHg 22%
    18:00 +27°C° 0 mm 5 m/S 634 mmHg 25%
    19:00 +25°C° 0 mm 3 m/S 633 mmHg 28%
    20:00 +21°C° 0 mm 2 m/S 633 mmHg 30%
    21:00 +20°C° 0 mm 2 m/S 633 mmHg 34%
    22:00 +19°C° 0 mm 2 m/S 633 mmHg 38%
    23:00 +18°C° 0 mm 1 m/S 633 mmHg 42%

    Morgen, 26 Juni, Mittwoch

    Zeit Temperatur Niederschläge Wind Luftdruck Luftfeuchtigkeit
    00:00 +17°C° 0 mm 2 m/S 633 mmHg 38%
    01:00 +17°C° 0 mm 2 m/S 633 mmHg 34%
    02:00 +17°C° 0 mm 2 m/S 633 mmHg 31%
    03:00 +17°C° 0 mm 2 m/S 633 mmHg 29%
    04:00 +17°C° 0 mm 3 m/S 633 mmHg 28%
    05:00 +16°C° 0 mm 3 m/S 633 mmHg 26%
    06:00 +18°C° 0 mm 3 m/S 633 mmHg 27%
    07:00 +21°C° 0 mm 3 m/S 634 mmHg 28%
    08:00 +23°C° 0 mm 4 m/S 635 mmHg 28%
    09:00 +25°C° 0 mm 4 m/S 635 mmHg 26%
    10:00 +27°C° 0 mm 4 m/S 635 mmHg 24%
    11:00 +28°C° 0 mm 5 m/S 636 mmHg 22%
    12:00 +29°C° 0 mm 5 m/S 635 mmHg 21%
    13:00 +29°C° 0 mm 6 m/S 635 mmHg 20%
    14:00 +30°C° 0 mm 6 m/S 635 mmHg 19%
    15:00 +30°C° 0 mm 6 m/S 635 mmHg 19%
    16:00 +30°C° 0 mm 6 m/S 634 mmHg 20%
    17:00 +30°C° 0 mm 6 m/S 634 mmHg 21%
    18:00 +28°C° 0 mm 5 m/S 634 mmHg 22%
    19:00 +25°C° 0 mm 5 m/S 633 mmHg 23%
    20:00 +22°C° 0 mm 4 m/S 633 mmHg 23%
    21:00 +21°C° 0 mm 4 m/S 633 mmHg 23%
    22:00 +20°C° 0 mm 4 m/S 633 mmHg 24%
    23:00 +19°C° 0 mm 3 m/S 633 mmHg 24%

    übermorgen, 27 Juni, Donnerstag

    Zeit Temperatur Niederschläge Wind Luftdruck Luftfeuchtigkeit
    00:00 +19°C° 0 mm 3 m/S 633 mmHg 24%
    01:00 +18°C° 0 mm 3 m/S 633 mmHg 25%
    02:00 +18°C° 0 mm 3 m/S 633 mmHg 26%
    03:00 +17°C° 0 mm 3 m/S 633 mmHg 27%
    04:00 +17°C° 0 mm 3 m/S 633 mmHg 28%
    05:00 +16°C° 0 mm 3 m/S 633 mmHg 30%
    06:00 +19°C° 0 mm 3 m/S 634 mmHg 29%
    07:00 +21°C° 0 mm 3 m/S 634 mmHg 28%
    08:00 +23°C° 0 mm 4 m/S 635 mmHg 28%
    09:00 +25°C° 0 mm 4 m/S 635 mmHg 25%
    10:00 +26°C° 0 mm 5 m/S 635 mmHg 23%
    11:00 +28°C° 0 mm 5 m/S 636 mmHg 20%
    12:00 +29°C° 0 mm 5 m/S 636 mmHg 19%
    13:00 +29°C° 0 mm 6 m/S 635 mmHg 18%
    14:00 +30°C° 0 mm 6 m/S 635 mmHg 18%
    15:00 +30°C° 0 mm 6 m/S 635 mmHg 19%
    16:00 +29°C° 0 mm 6 m/S 635 mmHg 19%
    17:00 +29°C° 0 mm 6 m/S 634 mmHg 20%
    18:00 +27°C° 0 mm 6 m/S 634 mmHg 21%
    19:00 +25°C° 0 mm 5 m/S 633 mmHg 22%
    20:00 +22°C° 0 mm 4 m/S 633 mmHg 22%
    21:00 +21°C° 0 mm 3 m/S 633 mmHg 23%
    22:00 +20°C° 0 mm 3 m/S 633 mmHg 23%
    23:00 +19°C° 0 mm 3 m/S 633 mmHg 24%

    28 Juni, Freitag

    Zeit Temperatur Niederschläge Wind Luftdruck Luftfeuchtigkeit
    00:00 +18°C° 0 mm 3 m/S 633 mmHg 25%
    01:00 +18°C° 0 mm 3 m/S 633 mmHg 26%
    02:00 +17°C° 0 mm 3 m/S 633 mmHg 27%
    03:00 +17°C° 0 mm 3 m/S 633 mmHg 28%
    04:00 +17°C° 0 mm 3 m/S 633 mmHg 29%
    05:00 +16°C° 0 mm 3 m/S 633 mmHg 30%
    06:00 +19°C° 0 mm 3 m/S 634 mmHg 29%
    07:00 +21°C° 0 mm 3 m/S 635 mmHg 28%
    08:00 +24°C° 0 mm 3 m/S 635 mmHg 27%
    09:00 +26°C° 0 mm 4 m/S 636 mmHg 24%
    10:00 +27°C° 0 mm 4 m/S 636 mmHg 21%
    11:00 +29°C° 0 mm 5 m/S 636 mmHg 18%
    12:00 +29°C° 0 mm 6 m/S 636 mmHg 18%
    13:00 +30°C° 0 mm 6 m/S 636 mmHg 17%
    14:00 +32°C° 0 mm 6 m/S 636 mmHg 16%
    15:00 +30°C° 0 mm 6 m/S 636 mmHg 17%
    16:00 +30°C° 0 mm 6 m/S 635 mmHg 17%
    17:00 +30°C° 0 mm 7 m/S 635 mmHg 18%
    18:00 +27°C° 0 mm 6 m/S 635 mmHg 24%
    19:00 +23°C° 0 mm 5 m/S 634 mmHg 30%
    20:00 +20°C° 0 mm 4 m/S 634 mmHg 36%
    21:00 +18°C° 0 mm 3 m/S 634 mmHg 42%
    22:00 +17°C° 0 mm 2 m/S 634 mmHg 48%
    23:00 +16°C° 0 mm 1 m/S 635 mmHg 54%

    29 Juni, Samstag

    Zeit Temperatur Niederschläge Wind Luftdruck Luftfeuchtigkeit
    00:00 +15°C° 0 mm 1 m/S 635 mmHg 55%
    01:00 +15°C° 0 mm 1 m/S 635 mmHg 56%
    02:00 +15°C° 0 mm 1 m/S 635 mmHg 57%
    03:00 +13°C° 0 mm 0 m/S 635 mmHg 58%
    04:00 +13°C° 0 mm 0 m/S 635 mmHg 59%
    05:00 +13°C° 0 mm 0 m/S 636 mmHg 61%
    06:00 +15°C° 0 mm 0 m/S 636 mmHg 55%
    07:00 +17°C° 0 mm 0 m/S 637 mmHg 49%
    08:00 +19°C° 0 mm 0 m/S 638 mmHg 42%
    09:00 +23°C° 0 mm 1 m/S 639 mmHg 37%
    10:00 +25°C° 0 mm 1 m/S 639 mmHg 31%
    11:00 +26°C° 0 mm 2 m/S 640 mmHg 26%
    12:00 +27°C° 0 mm 2 m/S 639 mmHg 24%
    13:00 +27°C° 0 mm 3 m/S 639 mmHg 22%
    14:00 +28°C° 0 mm 3 m/S 639 mmHg 20%
    15:00 +28°C° 0 mm 3 m/S 638 mmHg 21%
    16:00 +28°C° 0 mm 3 m/S 638 mmHg 23%
    17:00 +27°C° 0 mm 3 m/S 637 mmHg 24%
    18:00 +25°C° 0 mm 3 m/S 637 mmHg 28%
    19:00 +23°C° 0 mm 2 m/S 636 mmHg 33%
    20:00 +20°C° 0 mm 2 m/S 635 mmHg 37%
    21:00 +19°C° 0 mm 2 m/S 635 mmHg 38%
    22:00 +19°C° 0 mm 1 m/S 635 mmHg 39%
    23:00 +19°C° 0 mm 1 m/S 636 mmHg 39%

    30 Juni, Sonntag

    Zeit Temperatur Niederschläge Wind Luftdruck Luftfeuchtigkeit
    00:00 +18°C° 0 mm 1 m/S 635 mmHg 40%
    01:00 +18°C° 0 mm 1 m/S 635 mmHg 41%
    02:00 +16°C° 0 mm 1 m/S 635 mmHg 41%
    03:00 +16°C° 0 mm 1 m/S 635 mmHg 42%
    04:00 +15°C° 0 mm 1 m/S 635 mmHg 42%
    05:00 +15°C° 0 mm 1 m/S 635 mmHg 43%
    06:00 +18°C° 0 mm 1 m/S 636 mmHg 39%
    07:00 +21°C° 0 mm 1 m/S 637 mmHg 34%
    08:00 +21°C° 0 mm 0 m/S 638 mmHg 30%
    09:00 +25°C° 0 mm 1 m/S 639 mmHg 27%
    10:00 +26°C° 0 mm 1 m/S 639 mmHg 25%
    11:00 +28°C° 0 mm 2 m/S 639 mmHg 22%
    12:00 +28°C° 0 mm 2 m/S 639 mmHg 21%
    13:00 +29°C° 0 mm 3 m/S 639 mmHg 21%
    14:00 +30°C° 0 mm 3 m/S 639 mmHg 20%
    15:00 +29°C° 0 mm 3 m/S 639 mmHg 21%
    16:00 +29°C° 0 mm 3 m/S 638 mmHg 22%
    17:00 +28°C° 0 mm 3 m/S 638 mmHg 23%
    18:00 +26°C° 0 mm 2 m/S 638 mmHg 26%
    19:00 +23°C° 0 mm 2 m/S 637 mmHg 30%
    20:00 +21°C° 0 mm 1 m/S 636 mmHg 33%
    21:00 +20°C° 0 mm 1 m/S 637 mmHg 33%
    22:00 +20°C° 0 mm 1 m/S 637 mmHg 33%
    23:00 +19°C° 0 mm 1 m/S 637 mmHg 32%
    Mehr zeigen